Location: Detroit
(42.3310°N, 83.0460°W)
Time: 03:57:00
(UTC-05:00)

STARLINK-5280 - Pass Details

Date: 27 November 2022
Orbit: 539 x 540 km, 53.2° (Epoch: 06 February)

Event Time Altitude Azimuth Distance (km) Brightness Sun altitude
Exits shadow 05:30:55 14° 189° (S) 1,513 ? -22.9°
Drops below altitude 10° 05:31:46 10° 180° (S) 1,759 ? -22.7°
Sets 05:34:21 0° 164° (SSE) 2,647 ? -22.3°
